Powrót do katalogu

STARLINK-35837

AktywnyŁącznośćVLEO
NORAD 66840·PAYLOAD·🇺🇸 United States

Wystrzelony Dec 2, 2025 z Vandenberg Space Force Base

Loading…

Następne Przeloty (najbliższe 24 godziny)

TLE

ŚwieżeSource: CelesTrak SupGP

Epoka: Sep 14, 2026, 22:39 UTC

1 66840C 25280V   26257.94423611 -.00015234  00000+0 -12764-2 0  2578
2 66840  70.0010 217.3661 0003397 266.2022  40.8042 14.98345359    12

Śledź STARLINK-35837 w czasie rzeczywistym z AllMySat

Download on the App Store